Temp
-8 -7 -7 -7 -7 -7 -7 -7 -6 -7 -7 -7 -7 -6 -6 -7 -7 -7 -7 -7 -7 -7 -7 -7 -7 -7 -8 -8 -8 -8 -8 -8 -8 -7 -7 -7 -7 -7 -7 -7 -8 -8 -8 -8 -8 -8 -8 -8 -8
-7 -7 -7 -7 -7 -7 -7 -7 -7 -8 -8 -7 -7 -7 -7 -7 -7 -7 -7 -7 -7 -7 -7 -7 -7 -7 -8 -8 -7 -8 -9 -9 -8 -7 -7 -7 -7 -7 -8 -8 -8 -8 -8 -8 -9 -9 -9 -9 -8
-7 -7 -7 -7 -8 -7 -7 -6 -7 -8 -8 -8 -8 -8 -7 -7 -7 -7 -7 -7 -7 -7 -7 -8 -8 -8 -8 -8 -8 -8 -8 -8 -8 -8 -8 -7 -7 -7 -7 -7 -8 -8 -8 -8 -8 -9 -9 -9 -9
-7 -7 -6 -7 -7 -7 -7 -7 -7 -8 -8 -8 -8 -7 -7 -7 -7 -7 -7 -7 -7 -8 -8 -8 -8 -8 -8 -8 -8 -8 -9 -8 -8 -8 -8 -8 -8 -8 -8 -8 -8 -8 -8 -8 -8 -9 -9 -9 -9
-7 -8 -7 -7 -8 -7 -7 -7 -8 -8 -8 -8 -8 -7 -7 -7 -7 -7 -7 -7 -8 -8 -7 -7 -8 -8 -7 -8 -8 -8 -8 -8 -8 -8 -8 -8 -8 -8 -8 -8 -8 -8 -9 -9 -9 -9 -9 -9 -9
-7 -7 -8 -7 -8 -7 -8 -8 -8 -8 -8 -8 -8 -7 -7 -7 -8 -7 -7 -8 -8 -8 -8 -8 -8 -8 -8 -8 -8 -8 -8 -8 -8 -8 -8 -8 -8 -8 -8 -8 -8 -8 -8 -9 -9 -9 -9 -9 -10
-7 -7 -7 -7 -7 -7 -7 -8 -8 -8 -8 -7 -8 -8 -8 -8 -8 -8 -8 -8 -8 -8 -8 -9 -9 -8 -8 -8 -8 -8 -8 -8 -8 -9 -9 -9 -9 -9 -9 -9 -9 -9 -9 -9 -9 -9 -9 -9 -9
-8 -8 -7 -7 -7 -8 -8 -7 -7 -8 -8 -8 -8 -8 -8 -8 -8 -9 -9 -9 -9 -9 -9 -8 -8 -8 -8 -9 -8 -8 -8 -8 -8 -9 -9 -10 -10 -10 -10 -10 -10 -10 -9 -9 -9 -9 -9 -9 -10
-8 -8 -8 -7 -8 -9 -9 -9 -8 -9 -8 -8 -8 -8 -8 -8 -8 -8 -9 -9 -9 -9 -9 -8 -9 -8 -9 -10 -9 -9 -9 -9 -9 -9 -9 -10 -10 -10 -10 -10 -10 -10 -10 -10 -10 -10 -10 -10 -10
-8 -8 -8 -8 -9 -10 -9 -9 -9 -9 -8 -8 -7 -8 -8 -8 -7 -7 -7 -8 -8 -9 -9 -8 -8 -9 -9 -9 -9 -9 -9 -9 -9 -9 -9 -10 -10 -10 -11 -11 -11 -11 -11 -11 -10 -10 -10 -10 -10
-7 -9 -8 -8 -9 -9 -8 -8 -8 -8 -8 -8 -8 -8 -8 -7 -7 -7 -7 -7 -7 -8 -8 -7 -7 -8 -8 -8 -8 -9 -9 -10 -10 -10 -10 -10 -12 -11 -12 -12 -11 -11 -11 -11 -11 -11 -11 -10 -10
-8 -8 -8 -9 -9 -8 -8 -8 -9 -8 -8 -9 -9 -8 -8 -8 -7 -7 -7 -7 -8 -8 -8 -8 -8 -9 -9 -9 -9 -9 -9 -10 -10 -11 -11 -11 -12 -12 -12 -12 -12 -12 -12 -12 -12 -11 -11 -11 -11
-9 -9 -10 -10 -9 -10 -9 -9 -9 -8 -8 -9 -8 -8 -8 -8 -8 -8 -8 -8 -8 -8 -9 -9 -9 -9 -9 -10 -10 -10 -10 -10 -10 -11 -11 -11 -12 -12 -12 -12 -12 -12 -12 -12 -12 -12 -12 -12 -12
-9 -10 -9 -10 -9 -9 -9 -9 -9 -9 -8 -8 -9 -9 -9 -9 -8 -8 -9 -9 -9 -9 -9 -9 -10 -10 -10 -10 -10 -11 -11 -11 -11 -12 -12 -12 -12 -12 -13 -13 -13 -13 -13 -12 -12 -12 -12 -12 -12
-9 -10 -10 -10 -10 -9 -9 -9 -9 -9 -8 -9 -9 -9 -9 -9 -9 -9 -9 -9 -9 -10 -10 -10 -11 -11 -11 -11 -11 -12 -12 -12 -12 -12 -12 -13 -13 -13 -13 -13 -13 -13 -13 -13 -13 -12 -12 -12 -12
-9 -8 -8 -9 -10 -9 -9 -9 -9 -9 -9 -9 -9 -10 -10 -9 -10 -10 -10 -10 -10 -10 -10 -11 -11 -12 -12 -11 -12 -13 -13 -12 -13 -13 -14 -14 -14 -14 -14 -14 -14 -14 -14 -13 -13 -13 -13 -13 -13
-9 -9 -9 -10 -9 -10 -9 -9 -9 -10 -10 -9 -10 -10 -11 -10 -10 -10 -10 -10 -10 -10 -11 -11 -11 -12 -12 -12 -13 -12 -13 -12 -13 -14 -15 -15 -15 -15 -15 -15 -14 -14 -14 -13 -13 -13 -13 -13 -13
-10 -10 -10 -10 -10 -10 -10 -9 -9 -10 -10 -10 -11 -11 -10 -11 -10 -10 -10 -10 -11 -11 -11 -12 -12 -12 -12 -13 -13 -13 -14 -13 -14 -15 -14 -15 -16 -16 -15 -15 -14 -14 -14 -14 -13 -14 -14 -14 -14
-10 -10 -10 -10 -10 -10 -10 -10 -9 -10 -11 -10 -11 -11 -11 -11 -11 -11 -11 -11 -11 -11 -12 -12 -12 -13 -13 -13 -14 -14 -14 -15 -15 -15 -15 -16 -16 -16 -16 -15 -15 -14 -14 -14 -15 -15 -15 -15 -15
-10 -10 -10 -10 -11 -10 -11 -11 -10 -10 -10 -10 -11 -11 -11 -11 -12 -11 -11 -12 -12 -12 -13 -13 -13 -13 -14 -14 -15 -15 -16 -16 -16 -16 -16 -16 -17 -16 -16 -16 -17 -16 -16 -17 -16 -16 -16 -15 -15
-10 -10 -11 -11 -10 -10 -10 -10 -10 -11 -10 -10 -11 -11 -11 -12 -12 -11 -12 -12 -12 -13 -13 -13 -13 -14 -15 -15 -15 -15 -16 -16 -16 -17 -17 -17 -17 -17 -16 -17 -17 -17 -17 -17 -17 -17 -17 -16 -16
-11 -11 -10 -11 -11 -11 -10 -10 -10 -10 -11 -11 -11 -11 -11 -11 -12 -12 -12 -13 -13 -13 -13 -13 -14 -15 -15 -15 -16 -16 -16 -16 -16 -17 -17 -18 -17 -18 -17 -17 -17 -17 -17 -17 -17 -17 -17 -17 -17
-11 -11 -10 -10 -10 -10 -10 -10 -10 -10 -11 -11 -11 -11 -11 -12 -12 -12 -12 -13 -13 -13 -13 -13 -14 -15 -15 -15 -15 -16 -16 -16 -16 -17 -17 -17 -17 -18 -18 -17 -17 -17 -17 -18 -18 -17 -17 -17 -17
-11 -11 -10 -9 -10 -9 -10 -11 -11 -11 -11 -10 -10 -11 -12 -12 -12 -12 -12 -13 -13 -13 -13 -14 -14 -14 -15 -15 -15 -16 -16 -16 -16 -16 -17 -18 -18 -18 -18 -17 -18 -17 -18 -18 -18 -18 -17 -18 -18
-11 -10 -11 -9 -9 -9 -10 -10 -10 -10 -10 -10 -11 -12 -12 -12 -13 -12 -12 -12 -13 -13 -14 -14 -15 -15 -15 -15 -15 -15 -16 -16 -17 -17 -17 -18 -18 -19 -19 -19 -19 -18 -19 -19 -18 -18 -18 -18 -18
-10 -10 -10 -10 -10 -11 -11 -11 -11 -10 -10 -10 -11 -12 -12 -13 -12 -12 -13 -13 -14 -14 -15 -15 -15 -15 -16 -16 -16 -16 -16 -16 -17 -17 -18 -18 -19 -19 -19 -19 -19 -19 -19 -19 -18 -18 -18 -19 -18
-10 -10 -10 -11 -10 -11 -11 -11 -10 -10 -10 -11 -12 -12 -13 -12 -12 -13 -13 -14 -14 -14 -15 -15 -15 -15 -15 -15 -16 -16 -17 -17 -17 -18 -18 -18 -19 -19 -19 -19 -20 -19 -19 -19 -19 -19 -18 -19 -19
-11 -10 -10 -11 -11 -11 -11 -11 -10 -10 -11 -12 -12 -13 -13 -13 -13 -13 -14 -14 -14 -15 -15 -15 -15 -15 -15 -16 -16 -16 -16 -17 -18 -18 -19 -19 -20 -20 -20 -20 -20 -20 -20 -19 -20 -19 -19 -19 -19
-10 -11 -10 -11 -11 -12 -11 -10 -10 -11 -12 -12 -13 -13 -13 -14 -14 -14 -14 -14 -14 -15 -16 -16 -16 -16 -16 -16 -16 -16 -16 -18 -19 -19 -20 -20 -20 -20 -20 -21 -20 -20 -20 -20 -20 -19 -19 -19 -19
-10 -10 -10 -11 -11 -12 -11 -10 -11 -12 -12 -13 -13 -14 -14 -14 -14 -14 -14 -14 -15 -16 -16 -16 -16 -16 -16 -17 -17 -17 -17 -19 -19 -20 -20 -20 -21 -20 -20 -20 -21 -21 -20 -20 -20 -20 -19 -19 -19
Height
5903 5900 5901 5902 5902 5900 5902 5903 5904 5904 5904 5905 5904 5905 5906 5906 5906 5909 5907 5907 5906 5905 5905 5904 5904 5903 5903 5902 5902 5902 5902 5901 5901 5900 5898 5897 5896 5896 5895 5894 5893 5893 5893 5893 5893 5892 5892 5892 5891
5901 5900 5902 5901 5902 5899 5899 5897 5903 5904 5904 5904 5905 5905 5906 5906 5906 5906 5905 5905 5905 5905 5904 5903 5903 5902 5901 5900 5899 5896 5897 5898 5897 5898 5897 5894 5893 5892 5892 5890 5889 5888 5888 5888 5889 5888 5887 5887 5887
5900 5901 5902 5902 5901 5902 5905 5906 5906 5905 5904 5904 5905 5905 5905 5905 5905 5905 5904 5904 5903 5902 5901 5901 5900 5899 5898 5897 5896 5894 5893 5893 5893 5893 5892 5891 5890 5889 5888 5887 5885 5884 5883 5883 5883 5883 5883 5882 5882
5900 5900 5900 5902 5903 5905 5903 5902 5902 5905 5905 5905 5905 5906 5904 5904 5904 5903 5902 5902 5901 5900 5899 5898 5896 5895 5893 5891 5890 5889 5890 5889 5888 5888 5887 5885 5885 5883 5882 5881 5880 5879 5877 5878 5877 5878 5877 5877 5877
5901 5902 5901 5904 5906 5905 5905 5904 5904 5904 5904 5904 5903 5903 5903 5903 5902 5900 5899 5899 5898 5896 5895 5894 5893 5892 5890 5887 5886 5885 5884 5883 5882 5881 5880 5880 5880 5878 5876 5876 5874 5873 5872 5871 5870 5871 5871 5870 5871
5902 5902 5904 5905 5905 5906 5908 5908 5907 5906 5905 5905 5903 5902 5902 5901 5900 5897 5896 5896 5896 5894 5892 5891 5890 5889 5887 5884 5883 5880 5878 5877 5876 5874 5873 5872 5871 5870 5869 5867 5867 5867 5866 5865 5863 5863 5863 5863 5863
5905 5903 5904 5904 5904 5905 5908 5909 5906 5905 5903 5902 5902 5903 5903 5900 5899 5897 5894 5892 5891 5891 5888 5887 5886 5885 5883 5880 5878 5876 5873 5871 5869 5867 5865 5865 5863 5861 5860 5859 5858 5858 5858 5858 5857 5856 5856 5856 5856
5905 5905 5903 5904 5904 5903 5906 5909 5908 5905 5903 5901 5901 5900 5900 5898 5897 5895 5893 5892 5888 5886 5883 5882 5880 5878 5876 5874 5872 5870 5866 5865 5862 5860 5857 5855 5854 5853 5852 5851 5851 5849 5849 5849 5848 5847 5847 5848 5848
5904 5902 5904 5903 5902 5904 5906 5906 5904 5903 5901 5900 5899 5898 5896 5895 5893 5892 5890 5888 5886 5884 5882 5880 5876 5872 5870 5868 5866 5864 5860 5857 5855 5854 5851 5850 5847 5845 5844 5843 5840 5840 5840 5839 5839 5839 5838 5838 5838
5905 5906 5905 5903 5903 5904 5905 5904 5903 5902 5899 5897 5896 5895 5891 5890 5888 5886 5885 5885 5883 5881 5879 5877 5875 5871 5868 5866 5863 5860 5856 5852 5848 5845 5843 5842 5840 5839 5838 5836 5835 5833 5833 5832 5831 5831 5830 5829 5829
5904 5905 5904 5900 5900 5904 5905 5902 5902 5899 5897 5895 5893 5890 5888 5886 5884 5882 5880 5879 5876 5874 5871 5869 5867 5863 5861 5859 5857 5853 5851 5849 5846 5841 5839 5837 5834 5831 5829 5828 5827 5825 5825 5824 5823 5823 5822 5820 5821
5907 5905 5901 5899 5898 5900 5901 5901 5899 5897 5896 5893 5892 5889 5885 5883 5881 5878 5875 5872 5872 5869 5866 5862 5859 5857 5854 5851 5848 5846 5844 5842 5839 5836 5831 5829 5827 5824 5822 5821 5819 5818 5816 5815 5814 5813 5812 5812 5811
5906 5904 5901 5901 5899 5901 5901 5901 5896 5896 5894 5892 5889 5886 5883 5880 5877 5874 5872 5869 5867 5865 5863 5859 5856 5852 5849 5845 5842 5838 5836 5832 5830 5828 5825 5822 5819 5817 5815 5813 5811 5809 5807 5806 5805 5804 5802 5801 5801
5902 5901 5901 5902 5900 5901 5903 5902 5896 5894 5891 5888 5885 5882 5879 5876 5874 5872 5868 5865 5862 5860 5859 5855 5851 5847 5843 5839 5836 5832 5828 5825 5821 5817 5814 5811 5808 5807 5805 5804 5802 5800 5798 5796 5795 5793 5791 5791 5790
5905 5903 5903 5904 5900 5901 5901 5901 5897 5894 5888 5884 5882 5880 5877 5874 5871 5868 5865 5861 5858 5854 5851 5848 5843 5838 5836 5832 5828 5824 5821 5817 5812 5809 5805 5802 5799 5795 5793 5792 5791 5789 5788 5786 5784 5783 5780 5778 5778
5908 5908 5907 5903 5901 5900 5897 5896 5894 5893 5888 5884 5879 5876 5874 5871 5868 5864 5860 5857 5853 5849 5845 5842 5839 5832 5827 5823 5820 5818 5813 5807 5803 5799 5794 5791 5789 5787 5783 5781 5778 5778 5776 5775 5773 5771 5769 5769 5767
5907 5905 5904 5904 5899 5895 5890 5892 5891 5885 5882 5879 5874 5874 5872 5870 5867 5860 5856 5852 5848 5843 5838 5835 5830 5825 5821 5814 5810 5807 5803 5798 5792 5789 5785 5781 5778 5776 5773 5771 5769 5766 5764 5762 5762 5760 5758 5757 5757
5904 5901 5900 5897 5894 5891 5887 5885 5881 5879 5875 5875 5874 5872 5871 5866 5862 5857 5852 5847 5842 5836 5832 5829 5823 5816 5810 5807 5802 5796 5791 5786 5782 5779 5775 5772 5768 5766 5764 5761 5759 5756 5752 5750 5749 5748 5747 5746 5747
5901 5898 5895 5893 5888 5885 5881 5877 5875 5873 5874 5873 5871 5866 5866 5862 5858 5854 5849 5844 5840 5834 5827 5821 5816 5810 5805 5801 5794 5789 5782 5777 5773 5771 5767 5764 5761 5757 5753 5750 5746 5744 5740 5738 5736 5736 5736 5735 5736
5896 5893 5891 5890 5885 5878 5877 5872 5872 5870 5868 5867 5866 5863 5860 5855 5851 5848 5842 5839 5833 5826 5819 5812 5806 5801 5797 5790 5784 5779 5773 5769 5764 5760 5757 5753 5750 5746 5743 5739 5737 5735 5731 5727 5725 5725 5725 5724 5724
5893 5891 5890 5889 5881 5873 5871 5869 5868 5866 5864 5862 5859 5855 5851 5849 5846 5842 5836 5830 5824 5817 5811 5804 5798 5791 5785 5780 5775 5770 5766 5762 5757 5753 5749 5747 5743 5738 5735 5731 5730 5726 5722 5719 5718 5716 5716 5715 5715
5892 5890 5888 5887 5885 5879 5873 5866 5866 5861 5858 5857 5856 5850 5847 5842 5840 5835 5827 5822 5815 5808 5800 5795 5789 5783 5778 5774 5768 5764 5759 5754 5749 5745 5740 5737 5732 5728 5724 5721 5719 5716 5713 5711 5710 5708 5707 5708 5706
5890 5886 5884 5881 5880 5874 5870 5863 5859 5858 5855 5850 5849 5843 5840 5835 5831 5824 5817 5812 5804 5800 5794 5788 5782 5777 5773 5768 5763 5758 5752 5746 5740 5735 5731 5726 5722 5719 5715 5711 5709 5705 5703 5701 5699 5699 5698 5698 5700
5885 5882 5878 5877 5874 5870 5863 5858 5857 5853 5850 5846 5844 5839 5835 5829 5823 5818 5812 5805 5800 5794 5787 5781 5776 5772 5766 5759 5754 5748 5742 5736 5730 5724 5718 5715 5711 5707 5704 5702 5700 5697 5696 5694 5693 5691 5691 5691 5691
5880 5876 5873 5873 5867 5862 5856 5851 5850 5846 5843 5839 5837 5834 5827 5821 5816 5810 5804 5799 5792 5785 5778 5772 5767 5762 5757 5752 5745 5738 5732 5725 5719 5712 5707 5703 5700 5697 5694 5692 5690 5688 5686 5686 5685 5683 5682 5683 5684
5875 5871 5867 5862 5858 5855 5851 5846 5844 5839 5836 5833 5830 5824 5819 5815 5810 5802 5796 5790 5785 5780 5773 5767 5762 5756 5749 5742 5736 5729 5722 5714 5706 5700 5695 5691 5688 5685 5683 5681 5680 5678 5677 5676 5677 5676 5676 5676 5677
5869 5867 5863 5858 5855 5849 5846 5840 5838 5834 5830 5827 5821 5819 5813 5806 5800 5793 5787 5783 5776 5768 5762 5757 5752 5746 5741 5734 5726 5718 5711 5703 5695 5689 5683 5679 5675 5673 5672 5671 5670 5669 5668 5668 5668 5668 5669 5669 5670
5862 5860 5858 5853 5848 5843 5839 5834 5832 5830 5825 5820 5817 5811 5805 5799 5793 5788 5781 5773 5767 5761 5755 5750 5744 5737 5731 5723 5715 5706 5699 5691 5682 5677 5671 5666 5663 5661 5660 5660 5660 5660 5660 5661 5661 5661 5663 5664 5666
5857 5852 5850 5848 5845 5839 5833 5829 5828 5826 5820 5816 5811 5806 5799 5793 5787 5782 5777 5769 5762 5755 5749 5742 5736 5729 5722 5714 5705 5696 5688 5680 5671 5666 5659 5655 5652 5650 5649 5648 5650 5651 5653 5655 5656 5657 5658 5659 5660
5851 5850 5848 5844 5841 5835 5828 5825 5824 5819 5814 5809 5804 5800 5795 5789 5783 5778 5771 5764 5756 5749 5743 5736 5728 5721 5713 5705 5695 5686 5677 5669 5661 5656 5650 5646 5643 5640 5639 5639 5639 5642 5646 5649 5651 5652 5654 5655 5656
Wind_Speed
7 4 4 3 4 16 10 14 9 9 5 5 6 7 7 5 7 6 7 7 9 10 10 10 10 14 12 9 7 6 12 9 8 14 15 16 17 19 20 20 20 21 21 23 25 25 25 26 27
3 4 4 4 7 15 8 15 15 8 7 4 4 4 6 6 6 8 7 7 8 9 9 11 13 13 12 16 25 31 25 20 20 18 22 22 22 24 23 23 23 24 23 24 25 25 26 27 27
6 7 6 3 8 8 3 9 9 6 5 7 6 5 8 9 10 11 13 12 13 13 14 14 14 16 17 19 23 22 18 18 20 20 23 27 29 27 27 28 26 26 26 26 26 26 26 27 29
8 11 9 5 9 4 8 16 12 4 1 3 3 7 7 8 9 10 11 12 12 14 17 18 19 20 22 23 23 24 20 20 21 23 25 27 28 28 29 29 29 29 30 30 29 29 29 30 31
3 13 14 8 3 7 16 15 14 9 6 6 1 4 10 10 11 11 12 12 14 14 16 19 21 22 24 25 26 26 27 26 25 25 26 27 29 30 30 31 31 31 31 32 32 32 31 31 32
10 14 13 14 11 14 16 17 11 8 6 5 5 5 9 11 12 13 15 15 17 18 19 21 21 24 27 29 29 30 31 30 29 27 26 26 28 31 32 33 32 31 30 32 32 34 35 36 35
6 16 11 9 10 13 14 13 11 10 10 10 7 9 9 9 11 13 15 18 19 20 21 24 24 24 26 28 30 30 30 32 31 30 28 27 27 28 32 34 34 33 34 35 34 35 36 37 38
5 5 12 12 10 19 18 13 11 10 10 13 9 9 15 18 16 15 15 16 18 19 22 24 29 32 32 31 29 29 31 30 28 30 30 29 28 27 28 27 27 28 32 33 33 35 36 36 37
1 8 8 11 18 15 13 18 18 14 12 9 14 15 20 20 19 18 17 17 19 21 23 23 26 29 29 26 26 28 29 29 29 29 29 29 31 31 31 28 29 27 26 27 29 30 30 32 32
5 7 5 14 17 14 15 15 17 16 15 15 16 19 20 20 19 18 16 14 15 18 19 21 20 19 18 20 26 31 30 32 32 29 28 26 26 26 26 25 24 24 25 26 27 28 29 30 32
3 8 16 16 19 16 17 19 18 15 15 15 17 18 20 19 19 19 16 17 20 23 26 25 23 24 25 27 29 30 28 27 28 31 32 32 31 31 28 27 27 27 24 26 27 28 29 32 34
6 14 14 9 19 21 22 23 23 22 17 14 16 18 17 18 21 21 22 22 24 23 25 28 29 30 31 32 34 33 33 33 33 31 34 34 35 35 34 34 32 32 33 33 31 31 31 32 32
15 8 10 8 15 17 18 23 28 21 19 18 19 19 18 19 22 22 23 24 25 24 25 27 30 32 34 34 36 37 39 40 38 35 35 37 38 39 37 37 36 38 38 40 36 35 34 34 36
12 15 12 11 20 18 18 22 25 22 22 18 20 22 22 21 21 23 24 27 28 29 29 31 31 33 34 35 36 37 39 40 40 42 44 43 43 41 41 41 41 43 42 42 41 39 38 38 40
7 14 15 16 21 9 24 22 22 29 23 24 26 25 23 22 23 24 25 28 28 30 30 31 34 36 36 37 37 38 39 42 47 49 47 44 42 42 39 40 40 38 38 40 40 40 40 41 41
13 14 13 15 5 20 22 17 19 20 19 22 29 23 22 23 23 25 25 27 30 31 32 34 35 35 39 43 41 40 41 46 44 48 49 44 41 40 42 42 44 39 38 39 40 39 41 42 42
12 15 17 23 17 24 27 25 21 14 16 24 15 15 19 22 24 27 28 31 32 32 35 36 36 38 39 44 39 37 47 39 33 36 38 41 42 40 34 35 37 39 40 41 42 41 40 40 40
16 19 24 26 32 26 32 29 23 27 11 13 23 24 19 23 26 29 34 35 34 34 33 34 37 39 42 28 48 48 46 43 50 44 43 31 28 34 34 31 33 38 42 43 44 44 40 37 37
19 21 25 31 29 33 33 31 29 28 26 15 31 19 18 21 24 35 36 35 33 32 30 36 38 39 39 44 50 51 51 49 55 45 36 28 40 33 32 35 37 39 38 37 35 38 38 34 36
17 16 23 24 28 33 29 29 29 28 28 34 26 18 23 27 33 40 34 37 33 35 36 37 40 44 45 45 46 45 43 44 37 36 43 37 29 35 36 32 30 32 30 31 32 33 36 35 34
14 22 23 26 35 39 32 32 34 34 34 38 39 33 25 33 30 34 37 37 36 36 38 41 44 45 41 38 37 39 40 39 38 36 30 29 29 32 32 30 33 31 28 28 30 31 32 33 33
27 26 27 30 31 37 36 34 30 34 38 38 41 31 28 35 35 39 37 34 37 40 42 45 44 38 34 33 36 37 39 39 40 38 39 35 35 31 32 32 32 32 31 28 30 28 29 33 33
27 31 34 37 33 32 30 32 31 32 34 39 35 33 35 38 42 40 39 40 42 44 45 46 37 33 34 36 38 40 42 45 44 43 41 37 33 25 34 28 31 33 32 26 27 27 27 30 32
33 30 30 24 29 29 27 28 29 31 34 35 37 37 30 37 39 41 40 41 43 45 48 40 31 33 37 42 44 46 47 48 47 48 45 40 41 40 30 33 36 35 31 30 26 27 28 29 27
30 31 32 29 22 26 26 29 29 31 32 35 35 32 34 39 38 42 41 43 45 47 47 37 34 37 41 44 47 48 49 50 49 48 47 45 37 38 36 38 35 33 31 28 27 26 25 25 25
30 29 33 29 28 28 26 29 30 31 34 34 36 39 41 38 40 41 43 45 46 46 37 32 33 38 44 47 48 48 49 50 51 50 47 44 40 38 37 33 33 31 32 27 25 24 24 21 23
31 32 31 32 32 30 29 33 32 34 35 35 38 41 36 44 42 43 45 47 48 47 37 35 38 44 47 47 48 49 47 48 50 48 44 42 40 36 33 32 32 32 29 24 28 25 23 20 21
33 35 33 33 32 33 34 35 35 36 34 34 35 32 41 43 41 43 46 49 49 43 36 37 40 45 48 49 51 51 50 50 52 47 43 41 36 34 30 28 29 27 27 25 22 19 20 18 18
29 32 34 32 31 34 37 37 36 33 32 33 34 36 38 40 42 43 45 46 45 38 36 37 40 44 46 49 50 50 52 51 46 40 40 36 32 31 31 27 25 23 25 27 17 18 17 16 16
28 29 27 26 29 31 34 37 34 31 31 33 35 36 36 39 40 42 43 43 41 35 35 36 40 43 45 45 46 50 53 49 41 37 33 32 28 31 27 23 22 22 19 16 16 17 14 13 15
Wind_Direction
94 143 186 251 301 147 134 94 68 46 51 354 342 331 337 340 324 316 268 276 279 286 289 288 281 282 286 250 286 278 288 259 325 296 278 266 261 260 257 256 258 259 258 259 261 262 259 258 258
98 27 357 110 95 142 128 96 54 25 0 3 318 317 329 332 328 324 322 316 297 296 296 294 295 288 280 266 273 300 323 312 300 299 283 274 269 264 260 255 257 256 258 260 263 264 263 265 263
46 16 347 45 145 133 40 15 51 27 339 318 320 329 326 324 319 313 302 296 295 301 303 302 298 295 291 290 292 299 296 282 272 258 256 261 267 274 274 273 268 265 264 262 261 263 263 265 267
35 48 83 107 96 55 16 40 35 44 2 255 325 351 349 332 320 315 312 304 294 292 293 293 292 293 294 295 293 292 285 278 275 275 271 271 273 271 272 271 269 268 267 267 266 263 263 262 262
63 103 81 73 69 29 37 56 61 56 64 66 243 316 328 322 314 311 308 298 297 293 294 294 294 293 289 289 290 293 295 293 290 284 278 274 275 273 271 269 269 268 269 269 270 269 266 264 264
118 115 103 101 73 60 58 27 38 17 352 331 324 301 298 307 305 302 299 299 297 298 296 293 293 293 291 289 290 294 298 297 296 292 286 283 273 268 267 267 266 269 271 272 271 270 269 266 261
73 108 101 104 63 56 46 35 28 12 358 346 338 326 324 321 311 300 303 310 305 296 291 293 294 295 293 294 292 289 289 292 292 288 285 282 279 277 269 266 267 266 267 269 268 268 268 268 267
92 99 74 45 31 34 10 0 346 350 338 327 333 333 338 327 321 312 304 300 303 302 299 299 301 298 297 294 289 287 291 296 294 292 284 283 285 281 274 272 271 267 267 268 267 268 269 268 267
198 3 55 27 19 11 2 351 344 346 332 326 315 321 317 312 313 308 298 290 289 284 289 295 293 300 299 297 301 297 294 295 291 286 282 282 286 283 277 278 278 279 276 271 270 270 269 268 268
72 179 71 11 15 1 351 353 346 340 328 326 317 317 317 318 316 314 307 307 302 302 298 298 301 293 282 282 291 291 289 291 298 299 299 293 291 287 284 281 281 278 280 281 278 278 279 277 274
15 49 357 4 6 349 353 351 342 340 329 318 320 320 322 323 322 316 310 308 314 317 308 301 306 305 299 294 296 300 299 294 298 294 293 290 292 288 284 281 277 276 278 278 281 287 283 277 274
40 1 353 354 344 345 348 357 342 340 333 335 329 325 327 329 328 320 314 314 314 313 317 313 312 308 305 302 301 300 297 296 295 288 289 287 284 283 281 279 277 278 282 282 283 285 284 280 276
352 3 358 326 325 323 342 350 340 338 341 338 331 327 330 329 327 324 319 315 316 317 313 310 307 306 305 304 305 303 303 300 295 290 291 288 281 276 276 274 277 281 287 284 283 282 280 275 275
16 3 330 319 305 313 335 344 334 339 330 338 337 329 329 327 329 325 322 318 316 316 315 310 309 307 304 303 302 303 303 300 296 294 296 293 287 281 277 275 279 282 283 281 282 281 278 278 278
16 358 1 318 294 287 327 330 320 337 327 326 321 326 319 321 322 321 320 318 317 318 319 317 314 310 306 304 302 301 301 298 296 295 292 288 284 280 279 277 278 283 283 282 280 277 277 275 275
330 317 332 349 242 305 339 329 316 322 354 332 315 313 317 318 324 322 321 319 321 320 320 316 311 309 310 306 302 304 301 298 293 293 292 289 282 280 281 282 283 282 279 279 279 279 279 278 275
334 334 345 330 344 336 327 333 328 305 339 342 337 320 317 319 317 326 324 321 318 316 317 316 313 310 308 307 300 294 304 299 313 311 306 289 286 287 284 285 282 280 280 279 280 281 280 278 276
344 341 334 330 333 334 319 328 334 316 340 8 331 318 321 331 330 328 327 325 319 318 318 317 314 314 317 298 312 308 306 294 307 310 298 291 296 288 285 284 290 286 283 284 283 280 278 276 273
327 331 327 328 329 320 326 333 337 327 328 291 318 301 299 331 320 323 322 323 321 320 317 315 317 319 313 303 305 306 308 302 302 302 292 304 302 303 292 288 289 282 281 279 278 278 276 275 271
305 319 313 320 321 319 329 328 326 323 319 317 298 318 265 291 320 316 315 325 324 322 324 324 323 320 314 309 307 307 311 310 312 291 292 311 304 288 285 292 294 296 292 286 281 276 272 265 259
300 300 305 323 318 321 321 314 315 309 315 313 319 320 293 271 313 319 317 326 327 325 324 326 323 318 316 315 315 317 315 314 310 307 309 304 298 286 286 284 287 287 287 283 280 276 275 267 261
318 303 301 297 301 300 303 302 308 309 311 311 323 325 324 301 320 320 329 328 328 330 330 327 322 319 318 316 317 317 315 313 310 309 305 297 297 277 283 292 284 287 289 284 274 269 268 267 264
308 291 295 293 298 293 296 297 302 302 305 306 317 312 314 311 316 327 332 329 331 329 327 325 322 319 316 315 314 313 313 310 308 307 304 297 295 285 293 274 285 292 288 281 279 276 272 263 260
295 304 302 297 286 292 298 287 287 292 295 303 305 311 316 308 321 323 327 328 326 325 326 321 317 315 316 317 316 314 312 309 307 305 303 301 295 286 294 278 289 286 290 275 273 268 265 259 263
300 307 304 299 298 315 309 302 305 301 306 302 304 314 317 315 315 322 323 323 325 327 325 319 320 318 315 312 312 313 312 310 307 304 302 299 293 286 281 285 285 281 286 271 267 267 258 260 265
301 303 313 313 323 321 312 308 311 310 308 306 311 314 314 313 312 321 324 327 326 323 318 309 311 312 315 316 314 313 311 307 305 302 299 297 293 287 283 279 281 274 283 263 269 273 264 259 266
295 305 304 306 310 310 307 309 312 312 307 310 314 310 307 315 322 326 327 322 324 324 319 317 318 316 315 316 316 315 311 308 304 302 300 296 292 290 285 280 276 277 260 284 268 265 259 258 266
297 297 301 307 310 309 310 308 311 309 308 310 314 314 317 319 322 324 324 321 322 321 315 314 317 317 317 318 318 317 316 311 307 307 298 294 291 288 285 273 272 261 261 274 254 257 252 259 265
292 294 301 304 300 300 302 305 308 308 309 318 318 319 318 319 322 323 316 318 320 316 312 316 316 315 316 317 317 316 317 315 313 307 301 297 291 285 284 284 268 256 256 253 259 250 251 257 256
291 295 292 289 291 296 298 304 311 319 321 319 321 318 314 317 319 312 315 319 315 309 307 315 314 315 318 317 316 318 318 321 319 314 305 297 296 293 282 274 258 241 241 239 246 243 247 254 234